STARLINK-5761, 55599

Orbit data source: Space-Track

STARLINK-5761, 55599 is a payload satellite owned by SpaceX/Seattle (US) in LEO that was launched on Sun, 12 Feb 2023 UTC via an FALCON 9 launch vehicle from the Air Force Eastern Test Range (AFETR). Payload-class satellites include a variety of spacecraft equipped with specific instruments for various scientific and technological missions. These include communications satellites like Starlink; space stations such as the ISS; scientific satellites like the Hubble; Earth observation satellites from companies like Planet Labs, Umbra, and HawkEye 360; GPS; miniature CubeSats for education and research; and military/defense satellites.

Loading next visibility...
Identifier
55599, 2023-020AG
Orbit
LEO
Country
Flag of USUS
Related business
Manufacturer
SpaceX/Seattle
Mission
Operational Commercial Communications
Bus & Motor
STARLINK, Unknown motor
Mass
305 kg wet, ~290 kg dry
Launch date (UTC)
2023-02-12 (3 years ago)
Launch vehicle
FALCON 9
Launch site
Air Force Eastern Test Range (AFETR)
Object type
Payload
Rocket body
Debris
Shape & HBR
Box + 1 Pan, 10.1 m
Radar Cross Section
13.562 m², Large (>1 m²)

Expand to show TLE details & history
Last TLE update: 18 hours ago

TLE from 18 hours ago
0 STARLINK-5761
1 55599U 23020AG  26198.39469851 -.00000077  00000-0  67336-5 0  9996
2 55599  43.0046 341.9124 0001540 269.5552  90.5123 15.27575936188872
Epoch: 2026-07-17T09:28Z
TLE epoch observation values (Epoch: 2026-07-17T09:28:21.951Z)
Latitude
-0.00002°
Longitude
-95.40151°
Altitude
482.847 km
Speed
7.626 km/s
True Right ascension
22h 47m 38s
True Declination
0° 00' 00"
Sunlit
Object was in full shadow at epoch
Visualization orbit readout
Latitude
Unknown
Longitude
Unknown
Altitude
Unknown
Speed
Unknown
Apparent Right ascension
Unknown
Apparent Declination
Unknown
Sunlit
N/A
Visualization observer readout
Local Sidereal Time
15:44:16
Azimuth
Unknown
Elevation
Unknown
Doppler factor
Unknown
Orbital elements
Apogee altitude
486.063 km
Perigee altitude
483.949 km
Semi-major axis
6,863.143 km
Eccentricity
0.00015
Inclination
43.0046°
RAAN
341.9124°
Arg. of periapsis
269.5552°
True anomaly
90.52995°
Mean anomaly
90.5123°
Eccentric anomaly
90.52112°
Mean motion
3.81732 °/min
Orbital period
94.31 mins
BSTAR
0.0000067336
Loading maneuver chart data...
Computing Atmospheric mass density...
Loading historical data...
Loading historical data...
Loading historical data...
Loading historical data...
Loading historical data...
Loading historical data...
Loading historical data...

Documentation

Showing up to 5 results
|